Volver al catálogo

CSTP-3.10

ActivoCienciaSSO
NORAD 67259·PAYLOAD·🇷🇺 Russia
Este nombre de satélite aún no ha sido confirmado por fuentes oficiales.

Lanzado Dec 28, 2025 desde Vostochny Cosmodrome

Loading…

Próximos Pases (próximas 24 horas)

TLE

ActualizadoSource: Space-Track

Época: Sep 14, 2026, 11:04 UTC

1 67259U 25313M   26257.46140202  .00009065  00000-0  35048-3 0  9997
2 67259  97.3892 331.3388 0014637  51.4442 308.8106 15.26354647 39572

Sigue CSTP-3.10 en tiempo real con AllMySat

Download on the App Store